GW6903 Weather Reports


time (UTC)temp
C
wind
direction
speed
KPH
gust
KPH
rain 1hr
cm
rain 24hr
cm
rain mn
cm
humidity
%
barometer
mb
20260504040016 11 225 4.8 11.3 0.00 0.10 0.00 96 1012.9
20260504033016 12 225 1.6 9.7 0.00 0.10 0.00 95 1013.1
20260504030016 12 203 1.6 4.8 0.00 0.10 0.00 95 1013.1
20260504023016 12 180 1.6 8.0 0.00 0.10 0.00 95 1013.2
20260504020017 12 225 1.6 3.2 0.00 0.10 0.00 95 1013.3
20260504013016 12 203 3.2 8.0 0.00 0.10 0.00 95 1013.6
20260504010016 12 248 3.2 8.0 0.00 0.10 0.00 95 1013.8
20260504003036 12 225 4.8 9.7 0.00 0.10 0.00 94 1014.0
20260504000016 12 225 3.2 9.7 0.00 0.10 0.00 95 1014.1
20260503233016 12 203 1.6 6.4 0.00 0.10 0.00 94 1014.4
20260503230016 13 203 0.0 3.2 0.00 0.10 0.00 94 1014.9
20260503223016 13 203 1.6 6.4 0.00 0.10 0.00 94 1015.1
20260503220016 13 180 1.6 4.8 0.00 0.10 0.10 94 1015.3
20260503213016 13 203 1.6 3.2 0.00 0.10 0.10 94 1015.2
20260503210016 13 203 0.0 3.2 0.00 0.10 0.10 93 1015.4
20260503203016 13 203 0.0 1.6 0.00 0.10 0.10 93 1015.2
20260503200016 13 203 0.0 3.2 0.00 0.10 0.10 93 1014.8
20260503193016 13 203 1.6 6.4 0.00 0.10 0.10 93 1014.4
20260503190016 13 203 1.6 6.4 0.00 0.10 0.10 92 1014.3
20260503183015 14 338 0.0 6.4 0.03 0.10 0.10 91 1014.1
20260503180015 15 135 0.0 1.6 0.05 0.10 0.10 89 1014.0
20260503173017 15 203 1.6 6.4 0.08 0.08 0.08 90 1013.7
20260503053016 11 203 1.6 6.4 0.00 0.00 0.00 86 1016.3
20260503050016 11 203 0.0 3.2 0.00 0.00 0.00 84 1016.3
20260503043016 12 203 0.0 3.2 0.00 0.00 0.00 85 1016.7